www.pogodaiklimat.ru
ПОГОДА в Тегусигальпе
Время
(UTC), дата
00 11.01
03 11.01
06 11.01
09 11.01
12 11.01
15 11.01
18 11.01
21 11.01
00 12.01
03 12.01
06 12.01
09 12.01
12 12.01
15 12.01
18 12.01
21 12.01
00 13.01
03 13.01
06 13.01
09 13.01
12 13.01
15 13.01
18 13.01
03 14.01
06 14.01
09 14.01
12 14.01
15 14.01
18 14.01
21 14.01
00 15.01
03 15.01
06 15.01
09 15.01
12 15.01
15 15.01
18 15.01
21 15.01
00 16.01
03 16.01
06 16.01
09 16.01
12 16.01
15 16.01
18 16.01
21 16.01
00 17.01
03 17.01
06 17.01
09 17.01
12 17.01
15 17.01
18 17.01
Ветер
(напр.,м/с)
Видим. Явления Облачность Т
(С)
Тd
(С)
f
(%)
Тe
(С)
Тes
(С)
Комфортность P
(гПа)
Po
(гПа)
Тmin
(С)
Tmax
(С)
R
(мм)
R24
(мм)
S
(см)
СЗ 5 12 км мгла {туман} 8/5 900 м
[Cu hum Ac trans Ci fib]
+21.5 +15.8 70 +25 +25 комфорт 1017.4 902.4 +18.5 +25.0 0.0
штиль 0 10 км мгла {туман} 9/8 800 м
[Sc Ac trans]
+19.8 +16.2 80 +22 +22 комфорт 1015.6 903.9
С 3 4000 м осадки на расстоянии {морось, туман} 9/8 300 м
[Sc]
+18.1 +16.6 91 +19 +19 тепло 1016.2 903.9 +18.5 +25.8 0.2
С 2 10 км мгла {туман} 9/9 300 м
[Sc]
+18.1 +16.5 90 +19 +19 тепло 1015.3 903.0
В 3 10 км мгла {туман} 9/9 300 м
[Sc]
+17.7 +15.7 88 +18 +18 тепло 1015.5 903.1 +17.7 +25.8 0.2
СВ 2 12 км мгла {туман} 5/5 800 м
[Sc diur, vesp]
+21.4 +14.6 65 +24 +28 комфорт 1016.3 905.1
В 3 12 км мгла {туман} 8/8 900 м
[Sc diur, vesp]
+24.4 +15.8 59 +28 +30 душно 1014.0 904.2 +17.7 +24.4
СВ 4 12 км мгла {туман} 6/6 840 м
[Sc diur, vesp]
+24.3 +15.5 58 +27 +29 жарко 1011.6 902.0
СВ 5 10 км осадки на расстоянии {туман} 9/8 660 м
[Sc diur, vesp Ac trans]
+21.4 +16.7 75 +25 +25 комфорт 1013.9 903.0 +17.7 +24.3
СЗ 5 50 км мгла {туман} ?/? +19.1 +16.0 82 +20 +20 тепло 1017.0 905.0
С 5 10 км мгла {туман} 9/9 360 м
[Sc]
+18.5 +16.1 86 +19 +19 тепло 1016.9 904.6 +17.7 +24.3
штиль 0 10 км мгла {туман} 6/6 360 м
[]
+18.2 +15.3 83 +18 +18 тепло 1015.7 903.4
СВ 5 10 км мгла {туман} 8/8 360 м
[Sc]
+18.1 +14.9 82 +18 +18 тепло 1016.5 904.1 +24.3
СВ 7 10 км мгла {туман} 6/6 840 м
[St As op Cs]
+22.2 +15.0 64 +26 +27 душно 1016.5 905.6
В 7 12 км мгла {туман} 5/5 600 м
[Cu Sc Ac trans Ci sp]
+25.7 +18.1 63 +28 +30 жарко 1014.1 904.7 +18.1 +25.7
В 6 15 км мгла {туман} 5/5 1020 м
[Cu Sc Ac trans Ci]
+24.2 +14.2 54 +27 +28 жарко 1012.4 906.5
СВ 4 10 км мгла {туман} 4/4 960 м
[Sc]
+23.0 +13.8 56 +26 +26 жарко 1013.4 903.1 +18.0 +26.5
СВ 3 5000 м осадки на расстоянии {туман} 9/9 900 м
[Sc Ac trans]
+20.2 +15.5 74 +23 +23 комфорт 1017.0 905.4
В 3 5000 м слаб. дождь {туман} 9/9 420 м
[Sc Ac trans]
+17.8 +15.4 86 +18 +18 тепло 1018.3 905.6 +18.0 +26.5 0.1
С 3 10 км осадки на расстоянии {туман} 9/9 800 м
[Sc]
+17.5 +15.4 87 +17 +17 тепло 1017.1 904.4
С 4 10 км осадки на расстоянии 9/9 360 м
[Sc]
+17.5 +14.6 83 +17 +17 тепло 1017.6 904.9 +17.0 +26.5 0.1
С 4 12 км мгла {туман} 8/8 360 м
[Sc diur, vesp]
+19.1 +15.3 79 +20 +21 тепло 1013.8 906.5
В 6 12 км мгла {туман} 8/8 840 м
[Sc diur, vesp]
+22.9 +14.4 59 +27 +28 душно 1015.8 905.2 +17.0 +22.9
СВ 5 7000 м слаб. морось {туман} 9/9 240 м
[St As op Ci]
+19.4 +15.5 78 +21 +21 комфорт 1018.2 906.1 0.0
СВ 5 10 км мгла {туман} 8/8 720 м
[Sc]
+18.5 +15.0 80 +19 +19 тепло 1018.4 905.9 +17.0 +25.0 0.0
СВ 2 8000 м мгла {туман} 8/8 240 м
[St As op Ci]
+17.0 +15.5 91 +17 +17 тепло 1017.6 904.8
СВ 5 8000 м мгла {туман} 8/8 240 м
[Sc]
+17.5 +14.9 85 +17 +17 тепло 1017.4 904.8 +17.0 +25.0 0.0
С 4 8000 м осадки на расстоянии {туман} 9/8 30 м
[Cu hum Ac trans]
+18.8 +16.3 85 +20 +21 тепло 1019.1 906.6
СВ 6 8000 м осадки на расстоянии {туман} 9/8 360 м
[Sc diur, vesp Ac trans]
+22.0 +16.5 71 +26 +27 душно 1015.4 904.5 +17.0 +22.1
В 5 10 км мгла {туман} 6/5 840 м
[Sc diur, vesp Ac trans]
+24.6 +15.2 56 +28 +29 душно 1011.9 902.4
СВ 5 8000 м осадки на расстоянии {туман} 8/8 360 м
[Sc diur, vesp]
+20.4 +15.3 73 +23 +23 комфорт 1014.6 903.2 +17.0 +24.6
СВ 5 8000 м осадки на расстоянии {туман} 9/8 720 м
[Sc Ac trans]
+18.2 +14.7 80 +18 +18 по сезону 1017.8 905.3
С 4 8000 м осадки на расстоянии {туман} 9/5 240 м
[Sc Ac trans]
+17.0 +15.6 91 +16 +16 по сезону 1017.4 904.6 +17.0 +24.6
В 1 10 км 0/ {морось, туман} 4/4 600 м
[Sc Ac trans]
+16.3 +14.2 87 +17 +17 тепло 1016.9 903.9
С 3 12 км мгла {туман} 6/6 750 м
[Sc Ac trans]
+16.7 +14.2 85 +16 +16 тепло 1017.6 904.6 +16.3 +24.6
С 4 10 км мгла {туман} 5/5 800 м
[Cu hum]
+17.8 +15.1 84 +18 +20 по сезону 1019.4 906.6 0.0
СВ 3 15 км мгла {туман} 5/5 800 м
[Cu hum]
+22.8 +12.1 51 +25 +31 комфорт 1015.6 905.0 +16.1 +22.8 0.0
СВ 4 15 км мгла {туман} 5/5 960 м
[Cu hum]
+24.9 +12.7 47 +27 +29 жарко 1011.9 902.4
С 4 12 км мгла {туман} 4/3 900 м
[Sc Ac lent]
+24.3 +12.1 46 +26 +26 жарко 1012.0 902.3 +16.1 +26.3 0.0
С 2 10 км мгла {туман} 5/4 840 м
[Sc Ac trans]
+24.2 +12.2 47 +26 +26 жарко 1011.9 902.2
СВ 4 8000 м в посл. час дождь {туман} 8/8 360 м
[Sc Ac trans]
+18.1 +15.4 84 +18 +18 тепло 1017.1 904.7 +16.1 +26.3 0.1
штиль 0 10 км мгла {дождь, туман} 8/6 800 м
[Sc Ac trans]
+17.3 +14.0 81 +17 +17 тепло 1016.6 903.9
С 6 8000 м мгла {туман} 8/6 240 м
[Sc Ac trans]
+26.8 +14.0 45 +29 +29 жарко 1017.4 904.5 +16.8 +26.3 0.1
СВ 6 10 км мгла {туман} 8/6 420 м
[Sc diur, vesp]
+18.6 +14.5 77 +19 +20 тепло 1018.2 905.8
С 10 10 км мгла {туман} 6/6 660 м
[Cu Sc]
+21.7 +15.1 66 +25 +25 комфорт 1015.8 904.8 +16.1 +21.7
СВ 5 10 км {туман} 8/8 840 м
[Sc diur, vesp]
+23.6 +15.2 59 +26 +27 жарко 1012.4 902.4
С 2 4000 м слаб. дождь {туман} 9/9 800 м
[Sc Ac As]
+18.6 +17.6 94 +20 +20 тепло 1015.9 903.8 +16.8 +24.0 1 1.0
С 4 8000 м осадки на расстоянии {туман} 8/3 660 м
[Sc Ac trans]
+18.2 +15.9 86 +18 +18 тепло 1017.5 905.0 0.5
С 4 8000 м мгла {дождь, туман} 8/5 300 м
[Sc Ac trans]
+18.1 +15.5 85 +18 +18 тепло 1016.9 904.5 +16.8 +24.0 0.5
СВ 3 8000 м мгла {туман} 9/9 300 м
[Sc]
+17.5 +15.8 90 +17 +17 тепло 1015.9 903.4
СВ 2 8000 м осадки на расстоянии {туман} 9/8 300 м
[Sc Ac trans]
+17.4 +16.0 91 +18 +18 тепло 1016.8 904.1 +16.7 +24.0 0.5
С 3 8000 м мгла {туман} 8/8 240 м
[Cu med, cong]
+19.3 +16.6 84 +21 +23 комфорт 1018.1 906.0
СВ 6 7000 м осадки на расстоянии {туман} 9/6 800 м
[Cu hum Ac As]
+23.6 +16.1 63 +27 +28 жарко 1014.9 904.7 +16.7 +23.6
Местоположение метеостанции Тегусигальпа (Гондурас): широта 14.05 долгота -87.21 высота над уровнем моря 1007 м.
В архиве по умолчанию представлена погода в Тегусигальпе за последнюю неделю. Архивные данные за месяц целиком и за предыдущие месяцы, начиная с января 2011 года, Вы можете получить, выбрав интересующий диапазон дат из раскрывающегося списка и нажав кнопку "Найти!".
*Определитесь, кто Вы:
Внимание! Время в таблицах - всемирное. Для получения местного времени необходимо прибавить поправку, которая равна -6 ч.
Смотрите также архив погоды в соседних городах и на ближайших метеорологических станциях:
Партнеры нашего сайта:      
Пояснения к столбцам:
  • Ветер - указаны скорость ветра в м/с - средняя за 10 мин, порывы в срок и между сроками (в фигурных скобках) и направление, откуда дует ветер: С - северный,
  • СВ - северо-восточный, В - восточный, ЮВ - юго-восточный, Ю - южный, ЮЗ - юго-западный, З - западный, СЗ - северо-западный.
  • Видимость - горизонтальная дальность видимости в метрах или километрах. При видимости от 1 до 10 км при отсутствии осадков обычно наблюдается дымка, при ухудшении видимости до 1 км и менее - туман. В сухую погоду видимость может ухудшаться дымом, пылью или мглою.
  • Явления - указаны атмосферные явления, наблюдавшиеся в срок или в последний час перед сроком; фигурными скобками обозначены явления, наблюдавшиеся между сроками (за 1-3 часа до срока); квадратными скобками обозначены град или гололедные отложения с указанием их диаметра в мм.
  • Облачность - указаны через наклонную черту общая и нижняя облачность в баллах и высота нижней границы облаков в метрах; квадратными скобками обозначены формы облаков: Ci - перистые, Cs - перисто-слоистые, Cc - перисто-кучевые, Ac - высококучевые, As - высокослоистые, Sc - слоисто-кучевые, Ns - слоисто-дождевые, Cu - кучевые, Cb - кучево-дождевые. Подробнее классификацию облаков см. в Атласе облаков (PDF).
  • T - Температура воздуха - температура, измеренная на высоте 2 м над землей.
  • Td - Температура точки росы - температура, при понижении до которой содержащийся в воздухе водяной пар достигнет насыщения.
  • f - Относительная влажность воздуха - влажноcть воздуха, измеренная на высоте 2 м над землей.
  • Te - Эффективная температура - температура, которую ощущает одетый по сезону человек в тени. Характеристика душности погоды. При расчете учитывается влияние влажности воздуха и скорости ветра на теплоощущения человека.
  • Tes - Эффективная температура на солнце - температура, которую ощущает человек, с поправкой на солнечный нагрев. Характеристика знойности погоды. Зависит от высоты солнца над горизонтом, облачности и скорости ветра. Ночью, в пасмурную погоду, а также при ветре 12 м/с и более поправка равна нулю.
  • P - Атмосферное давление - приведенное к уровню моря атмосферное давление.
  • Po - Атмосферное давление - измеренное на уровне метеостанции атмосферное давление.
  • Tmin - Минимальная температура - минимум температуры воздуха на высоте 2 м над землей.
  • Tmax - Максимальная температура - максимум температуры воздуха на высоте 2 м над землей.
  • R - Количество осадков - Количество выпавших осадков за период времени, мм. При наведении курсора мыши на число - период времени, за который выпало указанное количество осадков.
  • R24 - Количество осадков - Количество выпавших осадков за 24 часа, мм.
  • S - Снежный покров - Высота снежного покрова, см. При наведении курсора мыши на число - состояние снежного покрова и степень покрытия местности в баллах.